Temperature
-1 -0 -1 -1 -1 -1 -1 -1 -0 1 0 1 1 0 1 1 1 1 1 1 1 1 1 1 1 2 2 2 2 2 2 2 2 2 2 2 3 3 3 3 3 3 3 3
-1 -0 -0 -1 -0 -1 -1 -1 -1 -0 0 1 1 1 1 1 1 1 0 0 0 1 1 1 1 1 1 1 1 1 2 2 2 2 2 2 2 2 2 2 2 2 2 2
-2 -1 -1 -0 -0 -1 -1 -1 -1 -0 0 -0 -0 -0 0 0 0 0 0 0 0 0 0 0 0 0 1 1 1 1 1 1 1 1 1 1 1 2 2 2 2 2 2 2
-3 -2 -0 1 -1 -1 -1 -1 -2 -1 -1 -1 -0 0 1 1 0 0 0 -0 -0 0 0 0 0 0 0 0 0 0 0 0 0 0 1 1 1 1 1 1 1 1 1 1
-3 -3 -2 -1 -1 -1 -1 -1 -2 -2 -1 -1 0 -0 -0 0 0 0 -0 -0 -0 -0 -0 -0 -0 -0 -0 -0 -0 -0 -0 -0 -0 -0 0 0 0 0 1 1 1 1 1 1
-4 -2 -1 0 -1 -1 -1 -1 -1 -2 -2 -1 -1 -2 -1 0 -0 -0 -0 -0 -0 -0 -0 -0 -1 -1 -1 -1 -1 -1 -1 -1 -1 -1 -1 -1 -0 -0 -0 0 0 0 0 0
-4 -3 -2 -1 -1 -1 -1 -0 -0 -1 -1 -1 -2 -1 -1 -1 -1 -1 -1 -1 -1 -1 -1 -1 -1 -1 -1 -1 -1 -1 -1 -1 -1 -1 -1 -1 -1 -1 -1 -1 -1 -1 -0 -0
-4 -3 -2 -2 -2 -2 -1 -0 -0 -0 -1 -1 -1 -1 -1 -1 -1 -1 -1 -1 -1 -1 -1 -1 -1 -2 -2 -2 -2 -2 -2 -2 -2 -2 -2 -1 -1 -1 -1 -1 -1 -1 -1 -1
-4 -2 -1 -1 -1 0 0 -0 -0 -0 -1 -1 -1 -1 -2 -2 -2 -1 -1 -1 -1 -1 -1 -1 -2 -2 -2 -2 -2 -2 -2 -2 -2 -2 -2 -2 -2 -2 -2 -2 -2 -2 -2 -2
-5 -4 -2 -1 -0 -0 0 -0 -0 -0 -1 -1 -1 -2 -2 -2 -2 -2 -2 -2 -2 -2 -2 -2 -2 -2 -2 -2 -2 -2 -2 -2 -2 -2 -2 -2 -2 -2 -2 -2 -2 -2 -2 -2
-5 -4 -3 -1 -0 -0 -0 -0 -1 -1 -1 -2 -2 -2 -2 -2 -2 -2 -2 -2 -2 -2 -2 -2 -2 -2 -2 -3 -3 -3 -3 -3 -3 -3 -3 -2 -2 -2 -3 -2 -3 -3 -3 -3
-3 -2 -3 -1 0 -0 -0 -1 -1 -1 -2 -2 -2 -2 -2 -3 -3 -3 -3 -3 -3 -3 -2 -2 -2 -3 -3 -3 -3 -3 -3 -3 -3 -3 -3 -3 -3 -3 -3 -3 -3 -3 -3 -3
-1 -0 -1 -0 -0 -1 -1 -1 -1 -2 -2 -2 -3 -3 -3 -3 -3 -3 -3 -3 -3 -3 -3 -3 -3 -3 -3 -3 -3 -3 -3 -3 -3 -3 -3 -3 -3 -3 -3 -3 -3 -3 -3 -4
-1 -1 -1 -1 -1 -1 -1 -2 -2 -2 -2 -3 -3 -3 -3 -3 -3 -3 -3 -3 -3 -3 -4 -4 -4 -4 -4 -4 -4 -4 -4 -4 -4 -4 -4 -4 -4 -4 -4 -4 -4 -4 -4 -4
-1 -1 -1 -1 -2 -2 -2 -2 -2 -2 -3 -3 -3 -3 -3 -3 -3 -3 -4 -4 -4 -4 -4 -4 -4 -4 -4 -4 -4 -4 -4 -4 -4 -4 -4 -4 -4 -4 -4 -4 -4 -4 -4 -4
-2 -2 -2 -2 -2 -2 -2 -3 -3 -3 -3 -3 -3 -3 -3 -3 -4 -4 -4 -4 -4 -4 -4 -4 -4 -4 -4 -4 -4 -4 -5 -5 -5 -5 -5 -4 -4 -4 -4 -5 -5 -5 -5 -5
-3 -3 -2 -2 -2 -2 -3 -3 -3 -3 -3 -3 -3 -4 -4 -4 -4 -4 -4 -4 -4 -4 -4 -5 -5 -5 -5 -5 -5 -5 -5 -5 -5 -5 -5 -5 -5 -5 -5 -5 -5 -5 -5 -5
-2 -2 -2 -2 -2 -3 -3 -3 -3 -3 -4 -4 -4 -4 -4 -4 -4 -4 -4 -4 -4 -4 -5 -5 -5 -5 -5 -5 -5 -5 -5 -5 -5 -5 -5 -5 -5 -5 -5 -6 -5 -5 -5 -5
-2 -3 -3 -3 -3 -3 -3 -3 -3 -4 -4 -4 -4 -4 -4 -4 -4 -5 -5 -5 -5 -5 -5 -5 -5 -5 -5 -5 -5 -5 -5 -5 -5 -5 -6 -6 -6 -6 -6 -6 -6 -6 -6 -5
-3 -3 -3 -3 -3 -3 -3 -3 -4 -4 -4 -4 -4 -4 -4 -5 -5 -5 -5 -5 -5 -5 -5 -5 -6 -6 -6 -6 -6 -6 -6 -6 -6 -6 -6 -6 -6 -6 -6 -6 -6 -6 -6 -6
-3 -3 -3 -3 -4 -4 -4 -4 -4 -4 -4 -4 -4 -5 -5 -5 -5 -5 -5 -5 -5 -6 -6 -6 -6 -6 -6 -6 -6 -6 -6 -6 -6 -6 -6 -6 -6 -6 -6 -6 -6 -6 -6 -6
-3 -3 -4 -4 -4 -4 -4 -4 -5 -5 -5 -5 -5 -5 -5 -5 -6 -6 -6 -6 -6 -6 -6 -6 -6 -6 -6 -6 -6 -6 -6 -6 -6 -6 -6 -6 -6 -6 -6 -6 -6 -6 -6 -6
-4 -4 -4 -4 -4 -4 -5 -5 -5 -5 -5 -5 -5 -5 -5 -6 -6 -6 -6 -6 -6 -6 -6 -6 -7 -7 -7 -7 -6 -6 -6 -6 -6 -6 -6 -6 -6 -6 -6 -6 -6 -6 -6 -6
-4 -4 -4 -4 -5 -5 -5 -5 -5 -5 -5 -6 -6 -6 -6 -6 -6 -6 -6 -6 -6 -7 -7 -7 -7 -7 -7 -7 -7 -6 -6 -6 -6 -6 -7 -6 -7 -7 -7 -7 -6 -6 -6 -6
-4 -4 -4 -5 -5 -5 -5 -5 -6 -6 -6 -6 -6 -6 -6 -6 -6 -6 -7 -7 -7 -7 -7 -7 -7 -7 -7 -7 -7 -7 -7 -7 -7 -7 -7 -7 -7 -7 -7 -7 -6 -6 -6 -6
-4 -4 -5 -5 -5 -5 -5 -6 -6 -6 -6 -6 -6 -6 -7 -7 -7 -7 -7 -7 -7 -7 -7 -7 -7 -7 -7 -7 -7 -7 -7 -7 -7 -7 -7 -7 -7 -7 -7 -6 -6 -6 -6 -6
-5 -5 -5 -5 -5 -5 -6 -6 -6 -6 -7 -7 -7 -7 -7 -7 -7 -7 -7 -7 -7 -7 -8 -8 -8 -8 -8 -8 -8 -8 -7 -7 -7 -7 -7 -7 -7 -7 -7 -6 -6 -6 -6 -6
Wind_Speed
6 6 4 6 8 6 7 7 7 8 9 12 9 7 6 4 3 3 4 4 4 4 4 3 3 3 3 2 2 1 1 1 0 0 1 1 1 2 2 2 2 2 1 1
4 4 4 7 9 8 8 7 8 9 11 10 7 4 4 4 4 4 4 4 5 5 4 3 3 3 3 2 2 1 1 1 1 1 2 2 2 2 2 2 2 2 2 2
4 5 5 6 7 7 6 6 6 8 9 6 6 6 5 4 4 5 5 4 5 5 4 4 3 3 3 2 1 1 1 1 1 1 2 1 2 2 2 2 2 2 2 1
2 4 4 7 1 4 6 7 8 8 8 6 7 6 4 3 4 4 5 5 5 5 4 3 3 2 2 1 1 1 0 0 1 1 1 1 2 1 1 1 1 1 1 1
1 2 7 8 3 3 4 7 6 8 8 7 6 5 5 3 3 4 6 6 5 4 3 3 2 2 0 1 1 1 0 0 0 1 1 1 1 1 1 1 1 1 1 1
3 3 6 6 2 1 1 6 4 4 6 6 4 4 6 4 4 5 5 4 3 3 2 2 2 1 0 0 0 1 1 1 1 1 1 1 0 0 1 1 1 1 1 1
5 5 8 6 2 3 3 6 3 3 5 5 4 6 5 5 5 4 4 4 3 2 2 2 1 1 1 1 2 2 1 1 1 2 2 1 1 1 1 1 1 1 1 1
5 5 9 4 5 6 7 3 3 4 4 4 5 5 5 4 5 4 4 4 3 2 3 2 0 2 1 1 2 1 1 1 1 1 1 1 1 1 1 2 2 1 1 1
9 9 5 5 7 6 4 4 4 4 5 4 4 5 4 4 4 4 4 4 3 2 3 2 0 1 2 2 1 1 1 1 1 1 1 1 2 2 1 2 1 1 1 1
6 9 7 7 6 5 5 6 5 5 4 3 4 4 4 4 4 4 3 3 3 2 2 2 1 1 1 1 1 2 2 1 1 1 1 1 1 1 1 2 1 1 1 1
6 7 6 6 7 7 5 4 4 3 3 3 3 3 3 3 4 4 4 3 3 2 2 2 2 1 1 1 1 2 2 2 1 1 1 1 1 1 1 2 2 2 2 2
8 7 6 6 5 4 5 5 5 4 3 2 3 3 3 3 3 3 3 3 3 3 3 2 2 1 1 1 1 2 2 1 1 1 1 1 1 1 1 0 1 1 1 1
6 4 5 6 4 3 4 4 4 4 4 3 2 2 2 2 3 3 3 3 3 3 3 2 2 2 2 1 1 1 2 1 1 1 1 1 1 0 1 2 2 2 1 1
6 3 4 5 4 3 3 3 2 1 2 2 2 1 2 2 2 2 3 3 3 2 2 2 1 2 2 0 0 1 1 1 1 1 1 1 1 1 1 0 1 1 2 2
6 5 6 4 2 2 1 1 1 2 2 2 1 1 2 2 3 3 3 3 2 2 2 1 1 2 1 0 1 1 1 1 1 1 1 1 1 1 1 1 0 0 1 1
3 2 3 3 3 3 1 2 3 3 3 2 2 2 2 2 3 3 3 2 1 2 2 2 2 2 1 0 1 1 1 1 1 1 1 1 1 1 1 1 0 0 0 0
3 3 4 4 5 4 4 4 4 4 3 3 3 3 2 2 2 2 3 2 2 2 2 2 2 2 1 1 1 1 1 1 1 1 1 1 1 1 1 1 1 1 1 1
6 6 6 5 5 5 4 3 3 3 3 3 2 1 1 2 2 3 3 2 2 2 2 2 2 1 0 0 1 1 1 1 1 1 1 1 1 1 1 1 1 1 1 1
4 5 4 4 4 4 4 3 3 3 3 2 2 2 2 2 2 2 2 1 2 2 3 2 2 1 1 0 0 1 1 1 0 1 1 1 1 1 1 1 1 1 1 1
2 2 2 2 2 3 3 2 2 2 2 2 2 1 1 2 2 1 1 2 2 2 2 2 1 1 1 0 0 1 1 1 1 1 1 1 1 1 1 1 1 1 1 1
2 2 2 2 1 2 2 2 2 2 2 2 3 3 2 2 1 1 1 2 3 2 2 2 1 1 1 0 0 1 1 1 1 1 1 1 1 1 1 1 1 1 1 1
3 2 2 2 2 2 2 2 2 2 2 2 2 2 2 1 1 1 2 2 2 3 1 1 1 1 0 0 0 1 1 1 1 1 1 1 2 2 2 2 1 1 1 1
3 3 3 3 2 2 1 1 2 2 3 3 3 3 3 2 2 1 2 2 1 2 1 0 1 1 1 1 1 1 1 1 1 1 1 1 2 1 1 2 1 1 1 1
3 3 3 2 1 1 2 2 2 2 2 2 2 3 2 1 1 1 2 2 2 2 1 1 1 1 1 1 1 0 0 0 0 0 1 1 1 1 1 1 1 1 1 1
3 3 2 2 3 3 3 2 1 1 2 1 1 2 1 2 2 1 1 1 1 1 1 1 2 2 2 1 1 0 0 0 0 0 0 0 1 1 1 1 1 1 1 1
3 3 3 4 3 3 2 2 2 2 2 2 1 1 1 1 1 1 0 0 0 1 1 1 1 2 1 1 1 1 1 1 1 1 0 0 0 0 1 1 1 1 1 1
2 2 2 2 2 3 3 3 3 3 3 3 2 1 1 1 1 1 1 1 1 1 1 1 1 1 1 1 1 1 1 1 1 1 1 1 0 1 1 1 1 0 0 1
Wind_Direction
260 264 248 247 257 234 215 218 225 258 265 277 285 287 291 300 310 323 327 330 328 327 329 334 336 340 345 351 357 23 74 91 87 31 55 58 52 47 39 59 85 102 97 97
293 286 268 268 262 239 233 235 243 266 277 280 292 298 297 298 305 308 309 311 314 317 322 319 313 317 331 337 352 40 64 59 47 49 53 55 55 55 58 63 69 87 93 106
280 316 339 283 248 211 217 222 215 240 260 295 312 302 284 290 296 292 290 296 300 298 288 287 291 305 311 310 340 35 50 47 60 66 59 53 55 54 59 72 73 72 72 85
287 9 259 248 244 200 222 243 232 249 268 275 274 283 279 272 272 284 293 295 292 291 292 296 297 308 317 334 2 32 42 52 70 76 62 48 56 50 40 73 80 76 72 72
165 258 277 289 263 191 214 271 242 243 268 284 299 321 308 288 265 262 273 279 281 281 279 289 289 286 322 354 11 34 315 188 132 107 97 72 56 30 27 69 58 56 60 63
164 210 245 256 244 179 111 285 256 236 265 283 320 304 291 308 303 292 296 302 303 299 300 295 288 257 155 259 305 281 262 219 163 136 149 168 182 76 33 59 67 62 46 47
200 226 261 255 226 132 176 257 274 256 265 266 248 254 281 307 308 303 308 314 320 320 309 288 276 158 174 226 260 267 254 172 150 164 178 176 153 126 85 78 85 78 67 51
182 212 253 217 151 186 223 257 261 269 271 265 266 281 297 308 312 318 325 328 333 336 322 317 80 134 177 242 264 257 147 147 161 173 176 156 145 138 111 113 106 91 79 51
197 217 245 198 204 224 214 235 253 256 271 269 278 287 298 304 307 310 316 318 326 330 330 336 17 158 201 253 244 163 149 170 182 172 169 167 151 143 126 130 135 146 138 107
246 259 255 252 251 250 233 235 252 254 254 256 264 278 294 304 310 315 317 315 324 336 330 325 325 273 230 246 170 156 164 171 160 156 154 135 141 148 155 167 166 173 168 176
251 270 289 268 243 246 249 250 261 264 248 241 249 276 287 298 303 308 312 316 322 315 307 306 321 314 274 214 158 162 168 166 160 158 148 136 143 172 195 201 190 186 201 207
234 236 225 256 258 237 237 249 251 253 259 262 237 252 277 287 293 301 308 315 323 326 323 315 321 314 301 268 179 162 158 150 147 146 143 125 96 14 360 298 240 236 247 241
231 241 236 263 270 236 231 247 251 239 229 252 262 253 264 286 292 305 313 317 312 312 313 311 308 306 302 275 184 172 176 180 170 166 161 143 119 95 9 2 8 360 352 341
243 244 266 261 255 256 250 250 244 236 241 233 246 272 284 295 302 306 300 297 299 308 307 305 306 301 301 271 141 167 168 180 173 175 172 169 179 193 181 190 334 343 356 16
246 229 237 256 257 261 265 242 239 269 270 276 263 261 269 280 287 291 297 302 316 328 319 316 304 302 320 97 143 186 179 179 176 178 181 184 184 185 181 179 198 322 15 22
244 234 227 234 245 249 246 230 233 251 255 255 262 267 268 269 282 295 304 306 308 306 306 308 298 296 305 156 177 209 200 202 201 185 183 176 170 161 161 173 199 240 222 233
194 225 229 240 243 245 238 235 232 235 240 241 248 259 274 291 306 310 311 310 291 287 291 288 292 308 304 195 191 195 177 180 193 185 185 187 181 174 187 206 215 238 252 250
212 217 217 221 229 237 244 239 232 231 233 241 246 245 248 252 265 284 298 318 332 327 310 299 303 314 310 184 178 175 164 178 179 183 183 195 187 184 191 207 221 243 264 274
219 221 224 222 218 215 225 233 233 231 230 216 216 237 250 258 261 275 295 310 307 306 313 317 329 5 351 286 10 154 154 164 185 186 177 198 195 186 199 211 226 237 242 261
219 224 219 222 215 209 219 228 218 223 225 202 203 217 254 272 272 274 277 279 277 272 281 299 317 326 314 291 331 150 154 169 181 182 184 187 193 203 212 218 227 233 234 239
214 218 211 211 231 232 226 218 208 220 229 206 198 212 232 257 261 244 249 296 306 298 289 306 338 296 277 262 337 133 158 174 189 200 204 208 210 214 222 224 230 237 233 232
210 210 217 219 217 252 261 225 209 210 213 209 207 204 206 236 257 272 264 263 282 308 326 295 279 273 289 40 124 152 168 183 193 201 205 215 223 223 225 232 236 238 233 224
212 213 216 222 224 240 261 228 210 201 204 209 210 209 209 217 219 222 276 289 286 315 344 281 283 310 21 50 107 130 163 188 201 217 229 231 229 227 231 239 238 233 226 225
213 216 219 219 189 187 231 249 232 211 206 217 220 213 202 203 251 252 248 284 319 338 343 320 354 15 26 48 74 75 332 236 229 256 263 253 225 220 231 243 248 243 229 224
208 208 203 190 203 221 224 216 201 198 192 207 223 221 210 200 206 236 236 246 307 19 16 357 14 19 33 58 55 32 7 311 208 248 264 266 253 242 244 247 250 249 237 228
205 211 215 217 217 214 198 189 197 203 196 203 218 212 198 178 173 179 162 149 75 44 40 20 17 26 38 43 31 15 0 345 350 345 289 270 270 269 260 258 273 255 236 219
199 205 207 229 231 209 195 194 200 206 202 197 203 202 182 162 151 148 135 124 104 55 50 41 34 35 41 38 27 13 5 359 353 347 348 344 323 294 286 271 274 266 212 184
Height
1514 1511 1511 1510 1508 1508 1509 1506 1505 1495 1490 1481 1478 1477 1474 1472 1470 1468 1466 1464 1463 1461 1460 1459 1458 1458 1457 1457 1457 1456 1456 1456 1456 1456 1457 1457 1457 1457 1458 1459 1459 1460 1461 1462
1514 1508 1508 1506 1502 1503 1503 1502 1499 1494 1487 1479 1477 1475 1473 1471 1469 1467 1465 1464 1462 1461 1460 1458 1457 1456 1456 1455 1455 1455 1455 1455 1455 1455 1455 1455 1455 1456 1457 1457 1458 1459 1460 1460
1516 1512 1507 1504 1495 1496 1496 1495 1494 1491 1484 1478 1477 1474 1472 1470 1469 1467 1465 1463 1462 1460 1459 1458 1456 1455 1454 1454 1454 1454 1453 1453 1453 1453 1453 1454 1454 1454 1455 1456 1457 1458 1459 1459
1520 1517 1511 1494 1490 1490 1491 1489 1487 1484 1480 1477 1475 1473 1471 1470 1468 1465 1464 1462 1460 1458 1457 1456 1455 1454 1453 1452 1452 1452 1452 1452 1452 1452 1452 1452 1452 1453 1454 1454 1455 1457 1457 1458
1522 1520 1509 1493 1489 1489 1490 1486 1482 1481 1478 1476 1474 1471 1469 1468 1466 1464 1462 1460 1458 1456 1455 1453 1452 1452 1451 1450 1450 1450 1450 1450 1450 1451 1451 1451 1451 1452 1453 1453 1454 1455 1456 1457
1521 1517 1506 1489 1487 1486 1489 1487 1478 1477 1476 1474 1473 1473 1467 1465 1464 1462 1460 1458 1456 1454 1452 1450 1449 1448 1448 1447 1448 1448 1448 1448 1449 1449 1450 1450 1451 1451 1452 1453 1453 1454 1455 1456
1517 1515 1501 1487 1485 1486 1491 1483 1476 1474 1473 1472 1471 1469 1466 1463 1461 1459 1457 1455 1453 1451 1449 1448 1446 1445 1445 1445 1445 1446 1446 1447 1448 1448 1449 1449 1449 1450 1451 1452 1453 1454 1455 1455
1514 1512 1497 1481 1482 1484 1480 1474 1473 1472 1471 1469 1467 1465 1463 1461 1459 1457 1455 1453 1451 1449 1447 1446 1445 1444 1443 1443 1444 1444 1445 1445 1446 1447 1447 1448 1448 1449 1450 1451 1452 1453 1453 1454
1496 1488 1478 1476 1475 1474 1473 1473 1471 1470 1469 1467 1465 1463 1461 1459 1457 1455 1453 1451 1450 1448 1446 1445 1444 1443 1442 1442 1443 1443 1443 1444 1445 1445 1446 1447 1448 1449 1450 1451 1451 1452 1452 1452
1488 1478 1474 1473 1472 1471 1471 1470 1469 1468 1467 1465 1463 1461 1460 1458 1456 1454 1452 1450 1448 1446 1445 1444 1443 1442 1442 1442 1441 1441 1442 1443 1444 1444 1445 1446 1447 1448 1449 1449 1450 1450 1450 1451
1481 1474 1471 1468 1468 1468 1467 1467 1466 1465 1464 1462 1461 1459 1458 1456 1454 1453 1451 1449 1447 1445 1444 1443 1442 1441 1441 1441 1441 1441 1441 1442 1443 1444 1444 1445 1446 1447 1448 1448 1449 1449 1449 1450
1472 1467 1467 1465 1464 1464 1464 1463 1462 1461 1460 1459 1459 1457 1456 1455 1453 1451 1450 1448 1446 1445 1443 1442 1441 1441 1441 1440 1440 1440 1440 1441 1442 1443 1443 1444 1445 1446 1447 1447 1448 1448 1449 1449
1463 1463 1463 1462 1462 1461 1461 1460 1459 1459 1458 1457 1456 1456 1454 1453 1451 1450 1449 1447 1445 1444 1443 1441 1441 1440 1440 1440 1439 1439 1439 1440 1441 1442 1442 1443 1444 1444 1444 1446 1446 1446 1447 1447
1460 1461 1459 1459 1459 1458 1458 1457 1457 1456 1456 1455 1454 1454 1453 1451 1450 1448 1447 1446 1445 1443 1442 1441 1440 1439 1439 1439 1439 1439 1439 1439 1440 1441 1441 1442 1442 1443 1443 1443 1444 1444 1445 1445
1456 1457 1457 1456 1456 1456 1455 1455 1454 1453 1453 1453 1452 1451 1450 1449 1448 1447 1446 1445 1443 1442 1441 1440 1439 1438 1438 1438 1438 1438 1438 1439 1439 1440 1440 1441 1441 1441 1442 1442 1442 1443 1443 1444
1453 1453 1453 1453 1453 1453 1452 1452 1452 1451 1451 1450 1450 1449 1449 1448 1446 1445 1444 1443 1442 1440 1440 1439 1438 1437 1437 1437 1437 1437 1437 1438 1438 1438 1439 1439 1440 1440 1440 1440 1441 1441 1441 1442
1450 1449 1450 1450 1450 1450 1450 1450 1449 1449 1449 1448 1448 1448 1447 1446 1445 1444 1443 1442 1441 1440 1439 1438 1437 1436 1436 1436 1436 1436 1436 1437 1437 1437 1438 1438 1438 1438 1439 1439 1439 1440 1440 1441
1446 1447 1447 1448 1447 1447 1447 1447 1447 1447 1446 1446 1446 1446 1445 1444 1443 1442 1441 1440 1439 1438 1437 1437 1436 1435 1435 1435 1435 1434 1435 1435 1435 1435 1436 1436 1437 1437 1437 1438 1438 1438 1438 1439
1443 1444 1444 1445 1445 1445 1445 1445 1444 1444 1444 1444 1444 1444 1443 1442 1441 1440 1439 1438 1437 1436 1436 1435 1434 1434 1433 1433 1433 1433 1433 1433 1434 1434 1435 1435 1435 1436 1436 1436 1436 1436 1437 1437
1440 1441 1441 1442 1442 1442 1442 1442 1442 1442 1442 1442 1442 1441 1441 1441 1440 1439 1438 1437 1436 1435 1434 1434 1433 1432 1432 1432 1432 1432 1432 1432 1432 1433 1433 1433 1434 1434 1434 1434 1434 1435 1435 1435
1438 1439 1439 1439 1439 1440 1440 1440 1440 1440 1440 1440 1440 1439 1439 1439 1438 1437 1436 1435 1435 1434 1433 1433 1432 1431 1431 1431 1431 1431 1431 1431 1431 1431 1431 1432 1432 1432 1432 1432 1433 1433 1433 1433
1437 1437 1437 1437 1437 1437 1437 1437 1437 1437 1438 1438 1438 1437 1437 1436 1436 1435 1435 1434 1434 1433 1432 1431 1431 1431 1430 1430 1430 1429 1429 1429 1430 1430 1430 1430 1430 1430 1430 1430 1431 1431 1431 1431
1435 1435 1435 1435 1435 1435 1435 1435 1435 1435 1435 1435 1435 1435 1435 1434 1434 1434 1433 1433 1432 1432 1431 1430 1430 1430 1430 1429 1429 1429 1428 1428 1428 1428 1428 1428 1429 1429 1429 1429 1429 1429 1429 1429
1432 1432 1432 1432 1432 1432 1432 1432 1432 1432 1433 1433 1433 1433 1433 1433 1433 1433 1432 1432 1431 1431 1430 1430 1430 1429 1429 1429 1429 1428 1428 1428 1427 1427 1427 1427 1427 1427 1427 1427 1427 1427 1427 1427
1430 1430 1430 1430 1429 1429 1429 1429 1430 1430 1430 1431 1431 1431 1431 1431 1431 1431 1431 1431 1430 1430 1430 1430 1429 1429 1428 1428 1428 1428 1427 1427 1427 1427 1426 1426 1426 1426 1426 1426 1426 1426 1426 1426
1427 1427 1427 1427 1427 1427 1427 1427 1427 1428 1428 1428 1429 1429 1430 1430 1430 1430 1430 1430 1430 1429 1429 1429 1429 1429 1428 1428 1428 1428 1427 1427 1426 1426 1426 1425 1425 1425 1425 1425 1425 1425 1425 1425
1424 1424 1424 1424 1425 1424 1425 1425 1425 1425 1426 1426 1427 1428 1428 1429 1429 1429 1429 1429 1429 1429 1429 1428 1428 1428 1428 1428 1428 1427 1427 1426 1426 1425 1425 1425 1425 1424 1424 1424 1424 1424 1424 1424